カタログに戻る

CZ-6A DEB

運用中PO
NORAD 54591·DEBRIS·🇨🇳 China

打ち上げ Nov 11, 2022 から Taiyuan Satellite Launch Center

Loading…

次のパス (今後24時間)

TLE

最新Source: Space-Track

元期: Sep 12, 2026, 18:16 UTC

1 54591U 22151MR  26255.76117884  .00014221  00000-0  13461-2 0  9994
2 54591  98.7165   2.5442 0075975 329.1056  30.5700 14.91577990129603

AllMySatでCZ-6A DEBをリアルタイム追跡

Download on the App Store